Regional Weather Roundup
Issued by NWS Charleston, SC

Current Version | Previous Version | Graphics & Text | Print | Product List | Glossary On
Versions: 1 2 3 4 5 6 7 8 9 10 11 12 13 14 15 16 17 18 19 20 21 22 23 24 25 26 27 28 29 30 31 32 33 34 35 36 37 38 39 40 41 42 43 44 45 46 47 48 49 50
000 ASUS42 KCHS 261527 RWRCHS REGIONAL WEATHER ROUNDUP NATIONAL WEATHER SERVICE CHARLESTON SC 1100 AM EDT WED JUL 26 2017 NOTE: "FAIR" INDICATES FEW OR NO CLOUDS BELOW 12,000 FEET WITH NO SIGNIFICANT WEATHER AND/OR OBSTRUCTIONS TO VISIBILITY. NOT ALL STATIONS ARE QUALITY CONTROLLED. USE DATA WITH CAUTION... ESPECIALLY DEWPOINT OBSERVATIONS. SCZ027-030-031-034>040-042>050-261600- ...SOUTHEAST SOUTH CAROLINA... CITY SKY/WX TMP DP RH WIND PRES REMARKS N CHARLESTON CLOUDY 82 74 76 SW7 30.12R WATERFRONT PRK N/A 81 75 82 CALM 30.09S JOHNS ISLAND CLOUDY 79 75 89 SW8 30.13R PINOPOLIS N/A 82 75 78 CALM 30.04S MONCKS CORNER PTSUNNY 81 75 83 SE5 30.12R SUMMERVILLE FAIR 81 75 83 S3 30.12S BEAUFORT MCAS TSTM 75 75 100 VRB3 30.13S FOG BEAUFORT ARPT FAIR 73 72 94 E6 30.12F HILTON HEAD IS PTSUNNY 75 75 100 NE10 30.09F WALTERBORO LGT RAIN 79 73 83 S5 30.14R ALLENDALE NOT AVBL ...SOUTHERN MIDLANDS AND PEE DEE... CITY SKY/WX TMP DP RH WIND PRES REMARKS GEORGETOWN FAIR 73 73 100 CALM 30.12F KINGSTREE CLOUDY 81 77 89 E5 30.12R ORANGEBURG MOSUNNY 84 75 74 SE7 30.12S HX 92 BARNWELL PTSUNNY 81 75 83 SE8 30.14R AIKEN FAIR 82 73 74 E6 30.16R MANNING CLOUDY 82 75 78 E6 30.12S COLUMBIA CLOUDY 83 74 74 E10 30.12S SUMTER CLOUDY 80 74 82 E7 30.11S FLORENCE PTSUNNY 84 76 76 E9 30.12F HX 93 MYRTLE BEACH MOSUNNY 82 72 69 E12 30.11F N MYRTLE BEACH CLOUDY 84 75 74 E13 30.11F HX 92 $$ GAZ063-065-086>088-099>101-113>116-118-119-134>141-150-261600- ...SOUTHEAST GEORGIA... CITY SKY/WX TMP DP RH WIND PRES REMARKS SAVANNAH ARPT LGT RAIN 80 73 79 NE6 30.12R HUNTER AAF DRIZZLE 79 75 89 NE6 30.10R FORT STEWART CLOUDY 81 73 78 CALM 30.09S STATESBORO CLOUDY 79 78 95 CALM 30.12S SYLVANIA CLOUDY 78 76 93 SE3 30.14R CLAXTON FAIR 83 74 74 CALM 30.11S ...CSRA...CENTRAL AND FAR SOUTHEAST GEORGIA... CITY SKY/WX TMP DP RH WIND PRES REMARKS THOMSON SUNNY 84 74 72 SE7 30.18R HX 91 AUGUSTA-BUSH MOSUNNY 85 74 69 CALM 30.10F HX 92 AUGUSTA-DANIEL MOSUNNY 85 73 67 VRB5 30.13R HX 91 SWAINSBORO FAIR 81 73 78 CALM 30.13S VIDALIA CLOUDY 82 73 74 E6 30.12S EASTMAN FAIR 83 67 59 E6 30.14F HAZLEHURST CLOUDY 82 78 86 CALM 30.10F HX 91 ALMA CLOUDY 81 73 76 NE3 30.11S WAYCROSS CLOUDY 82 80 92 CALM 30.10S HX 94 JESUP NOT AVBL BAXLEY CLOUDY 81 79 94 NE3 30.11S BRUNSWICK CLOUDY 81 77 89 CALM 30.11S SAINT SIMONS CLOUDY 83 75 77 VRB5 30.09S HX 90 $$ SCZ027-028-034-036>038-045-046-048>050-GAZ119-141-261600- ...LAKE AND SUPPLEMENTAL COASTAL OBSERVATIONS... STATION/POSITION TIME TEMP WIND PRES WAVE SWELL AIR SEA DIR/SP/G HT/PER HT/PER/DIR (UTC) (F) (DEG/KT/KT) (MB) (FT/S) (FT/S/D) WINYAH BAY 1345 78 70/ 17 1019.0 LAKE MURRAY 1450 79 50/ 1/ 7 1019.3S ACE BASIN NERRS 1445 77 CALM 1020.0S FORT PULASKI 1500 78 85 80/ 13/ 17 1020.1 SAPELO ISLAND 1400 79 CALM 1019.0 $$ ANZ835-935-AMZ111-154-330-350-352-354-370-450-454-472-261600- ...C-MAN AND BUOY OBSERVATIONS... STATION/POSITION TIME TEMP WIND PRES WAVE SWELL AIR SEA DIR/SP/G HT/PER HT/PER/DIR (UTC) (F) (DEG/KT/KT) (MB) (FT/S) (FT/S/D) BUOY 41004 1510 80 83 200/ 10/ 12 1018.6 BUOY 41008 1450 81 81 240/ 4/ 4 1018.9R 2/ 8 2/120/ 8 FOLLY BEACH CMAN 1500 80 180/ 15/ 17 1020.3R CAPERS NEARSHORE 1408 80 84 CALM / 2 1018.9F FRIPP NEARSHORE 1508 76 83 160/ 10/ 14 1019.9F STATION/POSITION TIME TEMP WIND PRES WAVE SWELL AIR SEA DIR/SP/G HT/PER HT/PER/DIR (UTC) (F) (DEG/KT/KT) (MB) (FT/S) (FT/S/D) 5E ST. MARYS GA 1500 80 N/A 1/10 FRYING PAN BUOY 1510 82 82 60/ 4/ 4 1019.1 BUOY 41025 1450 81 83 50/ 12/ 14 1020.6R 3/ 5 2/ 50/ 7 CAPE LOOKOUT NC 1500 79 40/ 15/ 18 1020.7R BUOY 41002 1450 83 83 230/ 12/ 14 1019.4R 3/ 9 2/ 90/ 9 BUOY 41010 1510 85 85 210/ 6/ 8 1019.8 ST AUGUSTINE FL 1500 86 74 270/ 5/ 7 1019.7F $$

USA.gov is the U.S. government's official web portal to all federal, state and local government web resources and services.